TimeEST,TemperatureF,Dew PointF,Humidity,Sea Level PressureIn,VisibilityMPH,Wind Direction,Wind SpeedMPH,Gust SpeedMPH,PrecipitationIn,Events,Conditions,WindDirDegrees,DateUTC
12:17 AM,17.6,10.4,73,30.14,7.0,NW,17.3,23.0,N/A,,Scattered Clouds,310,2001-01-02 05:17:00
12:37 AM,17.6,8.6,68,30.15,10.0,NW,16.1,24.2,0.00,Snow,Light Snow,320,2001-01-02 05:37:00
12:57 AM,15.8,8.6,73,30.16,10.0,NW,16.1,21.9,0.00,Snow,Light Snow,310,2001-01-02 05:57:00
1:17 AM,15.8,8.6,73,30.17,7.0,NW,9.2,-,0.00,Snow,Light Snow,310,2001-01-02 06:17:00
1:37 AM,15.8,8.6,73,30.16,10.0,NNW,16.1,19.6,0.00,Snow,Light Snow,330,2001-01-02 06:37:00
1:57 AM,15.8,10.4,79,30.18,5.0,NW,13.8,26.5,0.00,Snow,Light Snow,320,2001-01-02 06:57:00
2:17 AM,15.8,10.4,79,30.18,7.0,NNW,13.8,21.9,0.00,Snow,Light Snow,330,2001-01-02 07:17:00
2:37 AM,15.8,8.6,73,30.18,5.0,NW,16.1,25.3,0.00,Snow,Light Snow,320,2001-01-02 07:37:00
2:57 AM,15.8,8.6,73,30.19,7.0,NW,18.4,26.5,0.00,Snow,Light Snow,320,2001-01-02 07:57:00
3:17 AM,15.8,8.6,73,30.21,7.0,NNW,11.5,19.6,0.00,Snow,Light Snow,330,2001-01-02 08:17:00
3:37 AM,15.8,8.6,73,30.21,10.0,NW,15.0,24.2,0.00,Snow,Light Snow,320,2001-01-02 08:37:00
3:57 AM,15.8,8.6,73,30.22,10.0,NNW,10.4,17.3,0.00,Snow,Light Snow,330,2001-01-02 08:57:00
4:17 AM,15.8,8.6,73,30.22,10.0,NNW,12.7,19.6,0.00,Snow,Light Snow,330,2001-01-02 09:17:00
4:37 AM,15.8,8.6,73,30.21,10.0,NW,13.8,19.6,0.00,Snow,Light Snow,320,2001-01-02 09:37:00
4:57 AM,15.8,8.6,73,30.22,10.0,NW,13.8,28.8,0.00,Snow,Light Snow,320,2001-01-02 09:57:00
5:17 AM,15.8,8.6,73,30.23,10.0,NW,17.3,25.3,0.00,Snow,Light Snow,320,2001-01-02 10:17:00
5:37 AM,15.8,6.8,68,30.23,10.0,NW,15.0,21.9,N/A,,Scattered Clouds,320,2001-01-02 10:37:00
5:57 AM,14.0,8.6,79,30.24,10.0,NW,12.7,19.6,0.00,Snow,Light Snow,320,2001-01-02 10:57:00
6:17 AM,14.0,8.6,79,30.25,7.0,NW,9.2,21.9,0.00,Snow,Light Snow,320,2001-01-02 11:17:00
6:37 AM,14.0,8.6,79,30.25,10.0,NW,13.8,21.9,0.00,Snow,Light Snow,310,2001-01-02 11:37:00
6:57 AM,14.0,6.8,73,30.26,10.0,NW,10.4,17.3,N/A,,Clear,310,2001-01-02 11:57:00
7:17 AM,14.0,5.0,67,30.26,10.0,NW,10.4,20.7,N/A,,Clear,320,2001-01-02 12:17:00
7:37 AM,14.0,5.0,67,30.27,10.0,NW,13.8,20.7,N/A,,Clear,310,2001-01-02 12:37:00
7:57 AM,14.0,6.8,73,30.27,10.0,NW,11.5,20.7,N/A,,Clear,310,2001-01-02 12:57:00
8:17 AM,14.0,8.6,79,30.27,4.0,NW,17.3,25.3,0.00,Snow,Light Snow,310,2001-01-02 13:17:00
8:37 AM,15.8,8.6,73,30.28,5.0,WNW,18.4,24.2,0.00,Snow,Light Snow,300,2001-01-02 13:37:00
8:57 AM,15.8,8.6,73,30.29,10.0,NW,15.0,23.0,0.00,Snow,Light Snow,320,2001-01-02 13:57:00
9:17 AM,17.6,8.6,68,30.29,5.0,NW,10.4,18.4,0.00,Snow,Light Snow,310,2001-01-02 14:17:00
9:37 AM,17.6,10.4,73,30.30,3.0,NW,13.8,27.6,0.00,Snow,Light Snow,320,2001-01-02 14:37:00
9:57 AM,19.4,10.4,68,30.31,3.0,NW,18.4,29.9,0.00,Snow,Light Snow,320,2001-01-02 14:57:00
10:17 AM,19.4,10.4,68,30.32,5.0,NW,15.0,26.5,0.00,Snow,Light Snow,310,2001-01-02 15:17:00
10:37 AM,19.4,10.4,68,30.32,7.0,NW,13.8,26.5,0.00,Snow,Light Snow,320,2001-01-02 15:37:00
10:57 AM,19.4,8.6,63,30.33,10.0,NW,16.1,27.6,0.00,Snow,Light Snow,320,2001-01-02 15:57:00
11:17 AM,19.4,8.6,63,30.32,10.0,WNW,18.4,29.9,N/A,,Scattered Clouds,300,2001-01-02 16:17:00
11:37 AM,19.4,8.6,63,30.31,10.0,NW,21.9,32.2,N/A,,Scattered Clouds,320,2001-01-02 16:37:00
11:57 AM,19.4,8.6,63,30.31,10.0,NW,12.7,28.8,N/A,,Mostly Cloudy,310,2001-01-02 16:57:00
12:17 PM,19.4,8.6,63,30.30,10.0,NW,17.3,28.8,0.00,Snow,Light Snow,310,2001-01-02 17:17:00
12:37 PM,19.4,6.8,58,30.30,10.0,NNW,18.4,29.9,N/A,,Overcast,330,2001-01-02 17:37:00
12:57 PM,21.2,8.6,58,30.29,10.0,NW,12.7,23.0,0.00,Snow,Light Snow,320,2001-01-02 17:57:00
1:17 PM,19.4,6.8,58,30.29,10.0,WNW,11.5,29.9,N/A,,Overcast,300,2001-01-02 18:17:00
1:37 PM,19.4,6.8,58,30.30,10.0,NNW,11.5,23.0,N/A,,Overcast,330,2001-01-02 18:37:00
1:57 PM,19.4,8.6,63,30.30,7.0,NW,16.1,23.0,0.00,Snow,Light Snow,320,2001-01-02 18:57:00
2:17 PM,19.4,8.6,63,30.29,3.0,NW,13.8,25.3,0.00,Snow,Light Snow,310,2001-01-02 19:17:00
2:37 PM,19.4,8.6,63,30.29,2.5,NW,12.7,24.2,0.00,Snow,Light Snow,310,2001-01-02 19:37:00
2:57 PM,19.4,8.6,63,30.29,3.0,NW,18.4,27.6,0.00,Snow,Light Snow,320,2001-01-02 19:57:00
3:17 PM,19.4,8.6,63,30.30,7.0,NW,10.4,23.0,0.00,Snow,Light Snow,320,2001-01-02 20:17:00
3:37 PM,19.4,10.4,68,30.30,1.0,NW,17.3,24.2,0.00,Snow,Light Snow,320,2001-01-02 20:37:00
3:57 PM,19.4,10.4,68,30.29,0.8,NW,15.0,24.2,0.00,Snow,Light Snow,320,2001-01-02 20:57:00
4:17 PM,19.4,10.4,68,30.29,1.8,WNW,16.1,21.9,0.00,Snow,Light Snow,300,2001-01-02 21:17:00
4:37 PM,19.4,10.4,68,30.29,5.0,NNW,11.5,18.4,0.00,Snow,Light Snow,330,2001-01-02 21:37:00
4:57 PM,17.6,6.8,63,30.28,10.0,NW,13.8,19.6,N/A,,Scattered Clouds,320,2001-01-02 21:57:00
5:17 PM,17.6,6.8,63,30.28,10.0,NW,15.0,27.6,N/A,,Scattered Clouds,310,2001-01-02 22:17:00
5:37 PM,17.6,5.0,58,30.28,10.0,WNW,11.5,16.1,N/A,,Clear,300,2001-01-02 22:37:00
5:57 PM,15.8,5.0,62,30.28,10.0,WNW,10.4,18.4,N/A,,Clear,300,2001-01-02 22:57:00
6:17 PM,15.8,5.0,62,30.29,10.0,NW,6.9,20.7,N/A,,Clear,310,2001-01-02 23:17:00
6:37 PM,15.8,6.8,68,30.29,10.0,NW,6.9,26.5,N/A,,Clear,310,2001-01-02 23:37:00
6:57 PM,15.8,6.8,68,30.29,10.0,NW,13.8,23.0,N/A,,Clear,310,2001-01-02 23:57:00
7:17 PM,15.8,8.6,73,30.29,10.0,NW,15.0,20.7,N/A,,Clear,310,2001-01-03 00:17:00
7:37 PM,15.8,8.6,73,30.29,10.0,NW,13.8,29.9,N/A,,Clear,310,2001-01-03 00:37:00
7:57 PM,15.8,8.6,73,30.29,10.0,NW,16.1,25.3,N/A,,Clear,320,2001-01-03 00:57:00
8:17 PM,14.0,6.8,73,30.28,10.0,NW,16.1,25.3,N/A,,Clear,310,2001-01-03 01:17:00
8:37 PM,14.0,6.8,73,30.29,10.0,NW,13.8,24.2,N/A,,Clear,320,2001-01-03 01:37:00
8:57 PM,14.0,6.8,73,30.30,10.0,WNW,6.9,-,N/A,,Clear,290,2001-01-03 01:57:00
9:17 PM,14.0,5.0,67,30.30,10.0,West,8.1,18.4,N/A,,Clear,280,2001-01-03 02:17:00
9:37 PM,14.0,5.0,67,30.30,10.0,NW,5.8,-,N/A,,Clear,310,2001-01-03 02:37:00
9:57 PM,14.0,5.0,67,30.30,10.0,Calm,Calm,-,N/A,,Clear,0,2001-01-03 02:57:00
10:17 PM,14.0,5.0,67,30.30,10.0,Calm,Calm,-,N/A,,Clear,0,2001-01-03 03:17:00
10:37 PM,14.0,5.0,67,30.30,10.0,WNW,3.5,-,N/A,,Clear,300,2001-01-03 03:37:00
10:57 PM,14.0,5.0,67,30.30,10.0,NE,3.5,-,N/A,,Clear,50,2001-01-03 03:57:00
11:17 PM,14.0,6.8,73,30.30,10.0,Calm,Calm,-,N/A,,Clear,0,2001-01-03 04:17:00
11:37 PM,14.0,6.8,73,30.30,10.0,West,6.9,-,N/A,,Clear,270,2001-01-03 04:37:00
11:57 PM,14.0,5.0,67,30.29,10.0,WNW,8.1,-,N/A,,Clear,300,2001-01-03 04:57:00